| time (UTC) | temp F | wind direction | speed MPH | gust MPH | rain 1hr in | rain 24hr in | rain mn in | humidity % | barometer mb |
| 20260901222403 | 96 | 258 | 1.0 | 7.0 | 0.00 | 0.00 | 0.00 | 1016.3 | |
| 20260901221903 | 96 | 283 | 0.0 | 10.0 | 0.00 | 0.00 | 0.00 | 1016.3 | |
| 20260901221403 | 95 | 277 | 2.0 | 10.0 | 0.00 | 0.00 | 0.00 | 1016.3 | |
| 20260901220903 | 95 | 269 | 3.0 | 7.0 | 0.00 | 0.00 | 0.00 | 1016.3 | |
| 20260901220402 | 95 | 190 | 2.0 | 8.0 | 0.00 | 0.00 | 0.00 | 1016.0 | |
| 20260901215903 | 97 | 262 | 3.0 | 8.0 | 0.00 | 0.00 | 0.00 | 1016.3 | |
| 20260901215403 | 98 | 286 | 1.0 | 9.0 | 0.00 | 0.00 | 0.00 | 1016.6 | |
| 20260901214903 | 97 | 303 | 5.0 | 9.0 | 0.00 | 0.00 | 0.00 | 1016.6 | |
| 20260901214403 | 96 | 280 | 4.0 | 13.0 | 0.00 | 0.00 | 0.00 | 1016.3 | |
| 20260901212403 | 95 | 273 | 5.0 | 13.0 | 0.00 | 0.00 | 0.00 | 1016.3 | |
| 20260901211903 | 95 | 272 | 5.0 | 15.0 | 0.00 | 0.00 | 0.00 | 1016.3 | |
| 20260901211424 | 95 | 250 | 3.0 | 15.0 | 0.00 | 0.00 | 0.00 | 1016.0 | |
| 20260901210903 | 95 | 284 | 5.0 | 12.0 | 0.00 | 0.00 | 0.00 | 1016.0 | |
| 20260901210403 | 95 | 277 | 6.0 | 12.0 | 0.00 | 0.00 | 0.00 | 1015.6 | |
| 20260901205924 | 95 | 287 | 4.0 | 11.0 | 0.00 | 0.00 | 0.00 | 1016.3 | |
| 20260901205403 | 95 | 293 | 6.0 | 15.0 | 0.00 | 0.00 | 0.00 | 1016.0 | |
| 20260901204903 | 95 | 267 | 5.0 | 15.0 | 0.00 | 0.00 | 0.00 | 1016.6 | |
| 20260901204402 | 96 | 283 | 1.0 | 8.0 | 0.00 | 0.00 | 0.00 | 1016.3 | |
| 20260901203903 | 95 | 236 | 2.0 | 9.0 | 0.00 | 0.00 | 0.00 | 1016.6 | |
| 20260901203402 | 95 | 256 | 3.0 | 9.0 | 0.00 | 0.00 | 0.00 | 1016.6 | |
| 20260901202924 | 94 | 208 | 3.0 | 8.0 | 0.00 | 0.00 | 0.00 | 1016.3 | |
| 20260901202403 | 94 | 197 | 4.0 | 8.0 | 0.00 | 0.00 | 0.00 | 1016.6 | |
| 20260901201903 | 94 | 194 | 3.0 | 11.0 | 0.00 | 0.00 | 0.00 | 1016.3 | |
| 20260901201403 | 95 | 273 | 4.0 | 12.0 | 0.00 | 0.00 | 0.00 | 1016.6 | |
| 20260901200903 | 94 | 270 | 4.0 | 12.0 | 0.00 | 0.00 | 0.00 | 1016.0 | |
| 20260901200403 | 95 | 251 | 3.0 | 7.0 | 0.00 | 0.00 | 0.00 | 1016.0 | |
| 20260901195903 | 94 | 194 | 1.0 | 14.0 | 0.00 | 0.00 | 0.00 | 1016.3 | |
| 20260901195403 | 93 | 241 | 3.0 | 14.0 | 0.00 | 0.00 | 0.00 | 1016.3 | |
| 20260901194903 | 93 | 259 | 3.0 | 13.0 | 0.00 | 0.00 | 0.00 | 1016.6 | |
| 20260901194403 | 93 | 211 | 3.0 | 9.0 | 0.00 | 0.00 | 0.00 | 1016.0 | |
| 20260901193903 | 93 | 274 | 4.0 | 14.0 | 0.00 | 0.00 | 0.00 | 1016.3 | |
| 20260901193402 | 93 | 269 | 5.0 | 16.0 | 0.00 | 0.00 | 0.00 | 1016.3 | |
| 20260901192924 | 93 | 199 | 2.0 | 16.0 | 0.00 | 0.00 | 0.00 | 1016.0 | |
| 20260901192403 | 93 | 267 | 4.0 | 17.0 | 0.00 | 0.00 | 0.00 | 1016.3 | |
| 20260901191903 | 93 | 260 | 5.0 | 17.0 | 0.00 | 0.00 | 0.00 | 1017.0 | |
| 20260901191403 | 93 | 273 | 4.0 | 10.0 | 0.00 | 0.00 | 0.00 | 1016.6 | |
| 20260901190903 | 93 | 278 | 4.0 | 10.0 | 0.00 | 0.00 | 0.00 | 1016.6 | |
| 20260901190403 | 93 | 249 | 3.0 | 9.0 | 0.00 | 0.00 | 0.00 | 1016.6 | |
| 20260901185903 | 93 | 189 | 3.0 | 11.0 | 0.00 | 0.00 | 0.00 | 1016.6 | |
| 20260901185402 | 93 | 214 | 2.0 | 11.0 | 0.00 | 0.00 | 0.00 | 1016.6 | |
| 20260901184924 | 93 | 263 | 4.0 | 9.0 | 0.00 | 0.00 | 0.00 | 1016.3 | |
| 20260901184403 | 93 | 199 | 2.0 | 9.0 | 0.00 | 0.00 | 0.00 | 1017.0 | |
| 20260901183903 | 94 | 240 | 3.0 | 9.0 | 0.00 | 0.00 | 0.00 | 1017.0 | |
| 20260901183403 | 93 | 226 | 2.0 | 9.0 | 0.00 | 0.00 | 0.00 | 1017.0 | |
| 20260901182903 | 93 | 174 | 3.0 | 9.0 | 0.00 | 0.00 | 0.00 | 1016.3 | |
| 20260901182403 | 93 | 207 | 4.0 | 7.0 | 0.00 | 0.00 | 0.00 | 1016.6 | |
| 20260901181903 | 93 | 207 | 2.0 | 8.0 | 0.00 | 0.00 | 0.00 | 1017.0 | |
| 20260901181424 | 92 | 191 | 3.0 | 8.0 | 0.00 | 0.00 | 0.00 | 1017.0 | |
| 20260901175925 | 92 | 266 | 3.0 | 9.0 | 0.00 | 0.00 | 0.00 | 1016.3 | |
| 20260901175403 | 91 | 188 | 2.0 | 6.0 | 0.00 | 0.00 | 0.00 | 1016.3 | |
| 20260901174924 | 91 | 169 | 3.0 | 12.0 | 0.00 | 0.00 | 0.00 | 1017.0 | |
| 20260901174403 | 91 | 279 | 5.0 | 12.0 | 0.00 | 0.00 | 0.00 | 1017.3 | |
| 20260901173903 | 91 | 166 | 2.0 | 11.0 | 0.00 | 0.00 | 0.00 | 1017.3 | |
| 20260901173403 | 91 | 278 | 4.0 | 11.0 | 0.00 | 0.00 | 0.00 | 1017.3 | |
| 20260901172903 | 91 | 196 | 3.0 | 7.0 | 0.00 | 0.00 | 0.00 | 1017.3 | |
| 20260901172403 | 91 | 201 | 3.0 | 7.0 | 0.00 | 0.00 | 0.00 | 1017.3 | |
| 20260901171903 | 91 | 192 | 3.0 | 8.0 | 0.00 | 0.00 | 0.00 | 1017.3 | |
| 20260901171403 | 90 | 259 | 3.0 | 10.0 | 0.00 | 0.00 | 0.00 | 1017.3 | |
| 20260901170924 | 90 | 280 | 5.0 | 10.0 | 0.00 | 0.00 | 0.00 | 1017.0 | |
| 20260901170402 | 90 | 280 | 4.0 | 9.0 | 0.00 | 0.00 | 0.00 | 1017.6 | |
| 20260901165903 | 90 | 221 | 3.0 | 6.0 | 0.00 | 0.00 | 0.00 | 1017.3 | |
| 20260901165402 | 90 | 216 | 3.0 | 6.0 | 0.00 | 0.00 | 0.00 | 1017.3 | |
| 20260901164903 | 90 | 184 | 2.0 | 6.0 | 0.00 | 0.00 | 0.00 | 1017.6 | |
| 20260901164403 | 89 | 218 | 1.0 | 5.0 | 0.00 | 0.00 | 0.00 | 1017.6 | |
| 20260901163903 | 89 | 276 | 2.0 | 7.0 | 0.00 | 0.00 | 0.00 | 1017.6 | |
| 20260901163427 | 89 | 224 | 3.0 | 9.0 | 0.00 | 0.00 | 0.00 | 1018.0 | |
| 20260901162924 | 89 | 298 | 4.0 | 13.0 | 0.00 | 0.00 | 0.00 | 1018.0 | |
| 20260901162403 | 88 | 296 | 8.0 | 13.0 | 0.00 | 0.00 | 0.00 | 1018.0 | |
| 20260901161903 | 88 | 284 | 5.0 | 13.0 | 0.00 | 0.00 | 0.00 | 1017.6 | |
| 20260901161424 | 89 | 275 | 3.0 | 9.0 | 0.00 | 0.00 | 0.00 | 1018.3 | |
| 20260901160903 | 88 | 299 | 2.0 | 9.0 | 0.00 | 0.00 | 0.00 | 1018.0 | |
| 20260901160403 | 88 | 273 | 2.0 | 9.0 | 0.00 | 0.00 | 0.00 | 1017.6 | |
| 20260901155903 | 88 | 248 | 3.0 | 9.0 | 0.00 | 0.00 | 0.00 | 1017.6 | |
| 20260901155402 | 87 | 275 | 3.0 | 9.0 | 0.00 | 0.00 | 0.00 | 1017.3 | |
| 20260901154903 | 87 | 227 | 1.0 | 10.0 | 0.00 | 0.00 | 0.00 | 1018.0 | |
| 20260901154402 | 87 | 279 | 6.0 | 10.0 | 0.00 | 0.00 | 0.00 | 1018.0 | |
| 20260901153903 | 87 | 250 | 3.0 | 7.0 | 0.00 | 0.00 | 0.00 | 1018.0 | |
| 20260901153402 | 87 | 199 | 2.0 | 12.0 | 0.00 | 0.00 | 0.00 | 1017.6 | |
| 20260901152903 | 86 | 240 | 3.0 | 12.0 | 0.00 | 0.00 | 0.00 | 1018.0 | |
| 20260901152403 | 86 | 280 | 6.0 | 10.0 | 0.00 | 0.00 | 0.00 | 1017.6 | |
| 20260901151903 | 86 | 290 | 4.0 | 12.0 | 0.00 | 0.00 | 0.00 | 1017.3 | |
| 20260901151403 | 85 | 284 | 3.0 | 12.0 | 0.00 | 0.00 | 0.00 | 1017.3 | |
| 20260901150903 | 86 | 229 | 2.0 | 9.0 | 0.00 | 0.00 | 0.00 | 1017.3 | |
| 20260901150403 | 85 | 263 | 2.0 | 12.0 | 0.00 | 0.00 | 0.00 | 1017.6 | |
| 20260901145903 | 85 | 214 | 2.0 | 12.0 | 0.00 | 0.00 | 0.00 | 1018.0 | |
| 20260901145445 | 85 | 284 | 3.0 | 9.0 | 0.00 | 0.00 | 0.00 | 1017.6 | |
| 20260901144903 | 85 | 276 | 3.0 | 9.0 | 0.00 | 0.00 | 0.00 | 1018.0 | |
| 20260901144402 | 84 | 268 | 4.0 | 9.0 | 0.00 | 0.00 | 0.00 | 1017.6 | |
| 20260901143903 | 84 | 270 | 4.0 | 9.0 | 0.00 | 0.00 | 0.00 | 1017.6 | |
| 20260901143403 | 83 | 196 | 3.0 | 11.0 | 0.00 | 0.00 | 0.00 | 1017.6 | |
| 20260901142903 | 83 | 259 | 4.0 | 13.0 | 0.00 | 0.00 | 0.00 | 1017.3 | |
| 20260901142403 | 83 | 282 | 5.0 | 13.0 | 0.00 | 0.00 | 0.00 | 1018.0 | |
| 20260901141903 | 83 | 271 | 6.0 | 12.0 | 0.00 | 0.00 | 0.00 | 1018.3 | |
| 20260901141403 | 82 | 262 | 4.0 | 12.0 | 0.00 | 0.00 | 0.00 | 1018.0 | |
| 20260901140944 | 82 | 222 | 3.0 | 11.0 | 0.00 | 0.00 | 0.00 | 1018.0 | |
| 20260901140403 | 82 | 253 | 2.0 | 13.0 | 0.00 | 0.00 | 0.00 | 1018.0 | |
| 20260901135902 | 82 | 260 | 4.0 | 13.0 | 0.00 | 0.00 | 0.00 | 1017.6 | |
| 20260901135403 | 82 | 269 | 2.0 | 13.0 | 0.00 | 0.00 | 0.00 | 1017.6 | |
| 20260901134903 | 82 | 228 | 2.0 | 12.0 | 0.00 | 0.00 | 0.00 | 1018.0 | |
| 20260901134403 | 81 | 272 | 2.0 | 12.0 | 0.00 | 0.00 | 0.00 | 1018.0 | |
| 20260901133903 | 81 | 243 | 3.0 | 8.0 | 0.00 | 0.00 | 0.00 | 1017.6 | |
| 20260901133403 | 81 | 214 | 0.0 | 9.0 | 0.00 | 0.00 | 0.00 | 1017.6 | |
| 20260901132903 | 81 | 264 | 4.0 | 12.0 | 0.00 | 0.00 | 0.00 | 1018.0 | |
| 20260901132402 | 81 | 276 | 5.0 | 12.0 | 0.00 | 0.00 | 0.00 | 1018.0 | |
| 20260901131903 | 81 | 253 | 2.0 | 7.0 | 0.00 | 0.00 | 0.00 | 1018.0 | |
| 20260901131424 | 81 | 267 | 2.0 | 6.0 | 0.00 | 0.00 | 0.00 | 1017.6 | |
| 20260901130924 | 81 | 186 | 1.0 | 7.0 | 0.00 | 0.00 | 0.00 | 1018.0 | |
| 20260901130403 | 80 | 228 | 2.0 | 7.0 | 0.00 | 0.00 | 0.00 | 1017.6 | |
| 20260901125903 | 80 | 203 | 1.0 | 9.0 | 0.00 | 0.00 | 0.00 | 1017.6 | |
| 20260901125403 | 80 | 240 | 2.0 | 9.0 | 0.00 | 0.00 | 0.00 | 1018.0 | |
| 20260901124903 | 80 | 194 | 2.0 | 7.0 | 0.00 | 0.00 | 0.00 | 1018.0 | |
| 20260901124403 | 80 | 186 | 0.0 | 4.0 | 0.00 | 0.00 | 0.00 | 1017.6 | |
| 20260901123903 | 80 | 247 | 1.0 | 4.0 | 0.00 | 0.00 | 0.00 | 1017.3 | |
| 20260901123403 | 80 | 242 | 2.0 | 6.0 | 0.00 | 0.00 | 0.00 | 1017.3 | |
| 20260901122924 | 80 | 237 | 1.0 | 6.0 | 0.00 | 0.00 | 0.00 | 1017.3 | |
| 20260901122403 | 79 | 200 | 0.0 | 6.0 | 0.00 | 0.00 | 0.00 | 1017.6 | |
| 20260901121903 | 79 | 161 | 0.0 | 3.0 | 0.00 | 0.00 | 0.00 | 1017.6 | |
| 20260901121402 | 79 | 195 | 0.0 | 3.0 | 0.00 | 0.00 | 0.00 | 1018.0 | |
| 20260901120924 | 78 | 195 | 1.0 | 3.0 | 0.00 | 0.00 | 0.00 | 1017.6 | |
| 20260901120403 | 78 | 202 | 1.0 | 3.0 | 0.00 | 0.00 | 0.00 | 1017.3 | |
| 20260901115903 | 78 | 224 | 0.0 | 5.0 | 0.00 | 0.00 | 0.00 | 1017.3 | |
| 20260901115403 | 78 | 260 | 1.0 | 5.0 | 0.00 | 0.00 | 0.00 | 1017.0 | |
| 20260901114902 | 77 | 175 | 0.0 | 6.0 | 0.00 | 0.00 | 0.00 | 1017.3 | |
| 20260901114403 | 78 | 210 | 0.0 | 6.0 | 0.00 | 0.00 | 0.00 | 1017.3 | |
| 20260901113902 | 77 | 228 | 0.0 | 2.0 | 0.00 | 0.00 | 0.00 | 1017.0 | |
| 20260901113403 | 77 | 199 | 0.0 | 6.0 | 0.00 | 0.00 | 0.00 | 1017.0 | |
| 20260901112924 | 77 | 190 | 0.0 | 6.0 | 0.00 | 0.00 | 0.00 | 1016.6 | |
| 20260901112404 | 77 | 216 | 0.0 | 4.0 | 0.00 | 0.00 | 0.00 | 1016.6 | |
| 20260901111903 | 77 | 211 | 0.0 | 4.0 | 0.00 | 0.00 | 0.00 | 1016.6 | |
| 20260901111424 | 77 | 199 | 0.0 | 6.0 | 0.00 | 0.00 | 0.00 | 1017.0 | |
| 20260901110903 | 77 | 201 | 0.0 | 6.0 | 0.00 | 0.00 | 0.00 | 1016.3 | |
| 20260901110424 | 77 | 135 | 0.0 | 2.0 | 0.00 | 0.00 | 0.00 | 1016.0 | |
| 20260901104924 | 77 | 209 | 0.0 | 6.0 | 0.00 | 0.00 | 0.00 | 1016.0 | |
| 20260901104403 | 77 | 211 | 0.0 | 3.0 | 0.00 | 0.00 | 0.00 | 1016.0 | |
| 20260901103903 | 77 | 205 | 0.0 | 3.0 | 0.00 | 0.00 | 0.00 | 1016.0 | |
| 20260901103403 | 77 | 200 | 0.0 | 5.0 | 0.00 | 0.00 | 0.00 | 1016.3 | |
| 20260901102903 | 77 | 169 | 0.0 | 5.0 | 0.00 | 0.00 | 0.00 | 1016.0 | |
| 20260901102403 | 77 | 204 | 0.0 | 6.0 | 0.00 | 0.00 | 0.00 | 1016.3 | |
| 20260901101903 | 77 | 200 | 1.0 | 6.0 | 0.00 | 0.00 | 0.00 | 1016.6 | |
| 20260901101403 | 78 | 206 | 1.0 | 3.0 | 0.00 | 0.00 | 0.00 | 1016.6 | |
| 20260901100925 | 77 | 214 | 0.0 | 6.0 | 0.00 | 0.00 | 0.00 | 1016.3 | |
| 20260901100403 | 77 | 115 | 0.0 | 6.0 | 0.00 | 0.00 | 0.00 | 1016.3 | |
| 20260901095925 | 77 | 260 | 0.0 | 5.0 | 0.00 | 0.00 | 0.00 | 1016.0 | |
| 20260901095403 | 77 | 186 | 0.0 | 5.0 | 0.00 | 0.00 | 0.00 | 1016.0 | |
| 20260901094903 | 77 | 209 | 1.0 | 3.0 | 0.00 | 0.00 | 0.00 | 1016.0 | |
| 20260901094404 | 77 | 192 | 0.0 | 3.0 | 0.00 | 0.00 | 0.00 | 1015.6 | |
| 20260901093904 | 77 | 191 | 1.0 | 6.0 | 0.00 | 0.00 | 0.00 | 1016.3 | |
| 20260901093403 | 77 | 209 | 1.0 | 6.0 | 0.00 | 0.00 | 0.00 | 1016.0 | |
| 20260901092902 | 77 | 208 | 1.0 | 4.0 | 0.00 | 0.00 | 0.00 | 1015.6 | |
| 20260901092403 | 77 | 203 | 2.0 | 3.0 | 0.00 | 0.00 | 0.00 | 1015.6 | |
| 20260901091903 | 77 | 200 | 1.0 | 5.0 | 0.00 | 0.00 | 0.00 | 1015.6 | |
| 20260901090425 | 76 | 243 | 0.0 | 3.0 | 0.00 | 0.00 | 0.00 | 1016.0 | |
| 20260901085902 | 77 | 184 | 0.0 | 3.0 | 0.00 | 0.00 | 0.00 | 1016.0 | |
| 20260901085424 | 77 | 203 | 0.0 | 4.0 | 0.00 | 0.00 | 0.00 | 1015.6 | |
| 20260901084924 | 77 | 171 | 0.0 | 4.0 | 0.00 | 0.00 | 0.00 | 1015.6 | |
| 20260901084402 | 77 | 206 | 0.0 | 6.0 | 0.00 | 0.00 | 0.00 | 1015.6 | |
| 20260901083903 | 77 | 162 | 0.0 | 6.0 | 0.00 | 0.00 | 0.00 | 1015.6 | |
| 20260901083403 | 77 | 218 | 0.0 | 6.0 | 0.00 | 0.00 | 0.00 | 1016.0 | |
| 20260901082903 | 77 | 187 | 0.0 | 6.0 | 0.00 | 0.00 | 0.00 | 1016.0 | |
| 20260901082403 | 77 | 200 | 1.0 | 5.0 | 0.00 | 0.00 | 0.00 | 1015.6 | |
| 20260901081903 | 77 | 199 | 0.0 | 6.0 | 0.00 | 0.00 | 0.00 | 1015.3 | |
| 20260901081424 | 77 | 207 | 0.0 | 6.0 | 0.00 | 0.00 | 0.00 | 1015.6 | |
| 20260901080902 | 77 | 193 | 0.0 | 6.0 | 0.00 | 0.00 | 0.00 | 1015.6 | |
| 20260901080403 | 77 | 202 | 0.0 | 6.0 | 0.00 | 0.00 | 0.00 | 1015.6 | |
| 20260901075902 | 77 | 209 | 0.0 | 6.0 | 0.00 | 0.00 | 0.00 | 1015.6 | |
| 20260901075403 | 77 | 184 | 0.0 | 6.0 | 0.00 | 0.00 | 0.00 | 1015.6 | |
| 20260901074903 | 77 | 191 | 0.0 | 6.0 | 0.00 | 0.00 | 0.00 | 1015.3 | |
| 20260901074402 | 77 | 226 | 1.0 | 6.0 | 0.00 | 0.00 | 0.00 | 1015.6 | |
| 20260901073903 | 77 | 243 | 0.0 | 6.0 | 0.00 | 0.00 | 0.00 | 1015.6 | |
| 20260901073402 | 77 | 200 | 0.0 | 6.0 | 0.00 | 0.00 | 0.00 | 1015.6 | |
| 20260901072903 | 77 | 200 | 0.0 | 6.0 | 0.00 | 0.00 | 0.00 | 1015.6 | |
| 20260901072403 | 77 | 202 | 0.0 | 6.0 | 0.00 | 0.00 | 0.00 | 1015.6 | |
| 20260901071903 | 77 | 193 | 1.0 | 6.0 | 0.00 | 0.00 | 0.00 | 1015.6 | |
| 20260901071403 | 77 | 248 | 0.0 | 2.0 | 0.00 | 0.00 | 0.00 | 1015.6 | |
| 20260901070903 | 77 | 270 | 0.0 | 2.0 | 0.00 | 0.00 | 0.00 | 1016.3 | |
| 20260901070403 | 78 | 232 | 0.0 | 2.0 | 0.00 | 0.00 | 0.00 | 1016.0 | |
| 20260901065903 | 78 | 254 | 0.0 | 6.0 | 0.00 | 0.00 | 0.00 | 1015.6 | |
| 20260901065403 | 78 | 240 | 1.0 | 6.0 | 0.00 | 0.00 | 0.00 | 1015.6 | |
| 20260901064903 | 78 | 202 | 0.0 | 6.0 | 0.00 | 0.00 | 0.00 | 1016.3 | |
| 20260901064403 | 78 | 270 | 0.0 | 6.0 | 0.00 | 0.00 | 0.00 | 1016.0 | |
| 20260901063903 | 78 | 269 | 0.0 | 2.0 | 0.00 | 0.00 | 0.00 | 1016.0 | |
| 20260901063404 | 78 | 202 | 0.0 | 5.0 | 0.00 | 0.00 | 0.00 | 1015.3 | |
| 20260901062903 | 79 | 198 | 0.0 | 6.0 | 0.00 | 0.00 | 0.00 | 1016.0 | |
| 20260901062402 | 79 | 310 | 0.0 | 6.0 | 0.00 | 0.00 | 0.00 | 1015.6 | |
| 20260901060902 | 79 | 218 | 0.0 | 2.0 | 0.00 | 0.00 | 0.00 | 1015.6 | |
| 20260901060403 | 79 | 173 | 0.0 | 3.0 | 0.00 | 0.00 | 0.00 | 1015.3 | |
| 20260901055902 | 79 | 195 | 0.0 | 3.0 | 0.00 | 0.00 | 0.00 | 1015.6 | |
| 20260901055403 | 79 | 190 | 0.0 | 3.0 | 0.00 | 0.00 | 0.00 | 1015.3 | |
| 20260901054902 | 79 | 194 | 0.0 | 3.0 | 0.00 | 0.00 | 0.00 | 1015.3 | |
| 20260901054403 | 79 | 199 | 0.0 | 4.0 | 0.00 | 0.00 | 0.00 | 1015.3 | |
| 20260901053903 | 79 | 191 | 1.0 | 4.0 | 0.00 | 0.00 | 0.00 | 1015.3 | |
| 20260901053403 | 80 | 182 | 2.0 | 3.0 | 0.00 | 0.00 | 0.00 | 1015.3 | |
| 20260901052924 | 80 | 187 | 2.0 | 3.0 | 0.00 | 0.00 | 0.00 | 1015.6 | |
| 20260901052403 | 80 | 190 | 1.0 | 3.0 | 0.00 | 0.00 | 0.00 | 1016.0 | |
| 20260901051903 | 80 | 186 | 2.0 | 3.0 | 0.00 | 0.00 | 0.00 | 1015.6 | |
| 20260901051424 | 80 | 190 | 2.0 | 4.0 | 0.00 | 0.00 | 0.00 | 1015.3 | |
| 20260901050903 | 80 | 200 | 2.0 | 4.0 | 0.00 | 0.00 | 0.00 | 1015.6 | |
| 20260901050403 | 80 | 203 | 2.0 | 6.0 | 0.00 | 0.00 | 0.00 | 1016.0 | |
| 20260901045903 | 80 | 165 | 0.0 | 6.0 | 0.00 | 0.00 | 0.00 | 1016.0 | |
| 20260901045403 | 80 | 217 | 1.0 | 6.0 | 0.00 | 0.00 | 0.00 | 1016.3 | |
| 20260901044903 | 80 | 185 | 1.0 | 3.0 | 0.00 | 0.00 | 0.00 | 1016.3 | |
| 20260901044403 | 80 | 177 | 1.0 | 3.0 | 0.00 | 0.00 | 0.00 | 1016.0 | |
| 20260901043904 | 81 | 185 | 2.0 | 3.0 | 0.00 | 0.00 | 0.00 | 1016.0 | |
| 20260901043403 | 80 | 185 | 1.0 | 2.0 | 0.00 | 0.00 | 0.00 | 1016.0 | |
| 20260901042903 | 80 | 186 | 1.0 | 4.0 | 0.00 | 0.00 | 0.00 | 1016.3 | |
| 20260901042424 | 80 | 196 | 1.0 | 5.0 | 0.00 | 0.00 | 0.00 | 1015.6 | |
| 20260901041902 | 80 | 194 | 3.0 | 5.0 | 0.00 | 0.00 | 0.00 | 1016.0 | |
| 20260901041403 | 80 | 198 | 2.0 | 4.0 | 0.00 | 0.00 | 0.00 | 1016.0 | |
| 20260901040903 | 80 | 190 | 2.0 | 3.0 | 0.00 | 0.00 | 0.00 | 1016.0 | |
| 20260901040403 | 80 | 188 | 2.0 | 3.0 | 0.00 | 0.00 | 0.00 | 1016.6 | |
| 20260901035903 | 80 | 198 | 0.0 | 5.0 | 0.00 | 0.00 | 0.00 | 1015.6 | |
| 20260901035424 | 80 | 187 | 0.0 | 6.0 | 0.00 | 0.00 | 0.00 | 1016.6 | |
| 20260901034903 | 80 | 198 | 0.0 | 6.0 | 0.00 | 0.00 | 0.00 | 1016.6 | |
| 20260901034402 | 80 | 193 | 0.0 | 4.0 | 0.00 | 0.00 | 0.00 | 1016.0 | |
| 20260901033903 | 80 | 165 | 0.0 | 3.0 | 0.00 | 0.00 | 0.00 | 1016.3 | |
| 20260901033404 | 80 | 185 | 0.0 | 4.0 | 0.00 | 0.00 | 0.00 | 1016.3 | |
| 20260901032903 | 80 | 194 | 0.0 | 4.0 | 0.00 | 0.00 | 0.00 | 1016.3 | |
| 20260901032403 | 80 | 191 | 0.0 | 6.0 | 0.00 | 0.00 | 0.00 | 1016.6 | |
| 20260901031903 | 80 | 201 | 0.0 | 6.0 | 0.00 | 0.00 | 0.00 | 1016.3 | |
| 20260901031424 | 80 | 191 | 0.0 | 6.0 | 0.00 | 0.00 | 0.00 | 1016.6 | |
| 20260901030923 | 80 | 172 | 0.0 | 6.0 | 0.00 | 0.00 | 0.00 | 1017.0 | |
| 20260901030403 | 80 | 180 | 0.0 | 6.0 | 0.00 | 0.00 | 0.00 | 1017.3 | |
| 20260901025903 | 80 | 195 | 0.0 | 1.0 | 0.00 | 0.00 | 0.00 | 1016.6 | |
| 20260901025403 | 80 | 203 | 0.0 | 6.0 | 0.00 | 0.00 | 0.00 | 1016.6 | |
| 20260901024903 | 80 | 195 | 0.0 | 6.0 | 0.00 | 0.00 | 0.00 | 1016.3 | |
| 20260901024402 | 80 | 193 | 0.0 | 6.0 | 0.00 | 0.00 | 0.00 | 1017.0 | |
| 20260901022902 | 81 | 202 | 0.0 | 6.0 | 0.00 | 0.00 | 0.00 | 1017.0 | |
| 20260901022424 | 80 | 179 | 2.0 | 6.0 | 0.00 | 0.00 | 0.00 | 1016.6 | |
| 20260901021903 | 80 | 168 | 1.0 | 6.0 | 0.00 | 0.00 | 0.00 | 1016.6 | |
| 20260901021403 | 81 | 178 | 1.0 | 6.0 | 0.00 | 0.00 | 0.00 | 1017.0 | |
| 20260901020923 | 81 | 315 | 0.0 | 6.0 | 0.00 | 0.00 | 0.00 | 1017.0 | |
| 20260901020403 | 81 | 203 | 0.0 | 6.0 | 0.00 | 0.00 | 0.00 | 1017.3 | |
| 20260901015924 | 81 | 180 | 0.0 | 6.0 | 0.00 | 0.00 | 0.00 | 1016.3 | |
| 20260901015403 | 81 | 202 | 0.0 | 6.0 | 0.00 | 0.00 | 0.00 | 1016.6 | |
| 20260901014902 | 81 | 248 | 0.0 | 0.0 | 0.00 | 0.00 | 0.00 | 1016.6 | |
| 20260901014403 | 82 | 360 | 0.0 | 0.0 | 0.00 | 0.00 | 0.00 | 1017.3 | |
| 20260901013903 | 82 | 360 | 0.0 | 0.0 | 0.00 | 0.00 | 0.00 | 1017.0 | |
| 20260901013403 | 82 | 248 | 0.0 | 0.0 | 0.00 | 0.00 | 0.00 | 1016.6 | |
| 20260901012903 | 82 | 203 | 0.0 | 6.0 | 0.00 | 0.00 | 0.00 | 1017.0 | |
| 20260901012424 | 82 | 180 | 0.0 | 6.0 | 0.00 | 0.00 | 0.00 | 1016.6 | |
| 20260901011903 | 82 | 180 | 0.0 | 0.0 | 0.00 | 0.00 | 0.00 | 1016.6 | |
| 20260901011403 | 82 | 158 | 0.0 | 0.0 | 0.00 | 0.00 | 0.00 | 1016.6 | |
| 20260901010903 | 82 | 360 | 0.0 | 0.0 | 0.00 | 0.00 | 0.00 | 1017.3 | |
| 20260901010403 | 82 | 293 | 0.0 | 0.0 | 0.00 | 0.00 | 0.00 | 1016.6 | |
| 20260901005903 | 82 | 270 | 0.0 | 0.0 | 0.00 | 0.00 | 0.00 | 1016.3 | |
| 20260901005403 | 82 | 248 | 0.0 | 0.0 | 0.00 | 0.00 | 0.00 | 1016.3 | |
| 20260901003903 | 83 | 225 | 0.0 | 0.0 | 0.00 | 0.00 | 0.00 | 1016.3 | |
| 20260901003424 | 84 | 225 | 0.0 | 0.0 | 0.00 | 0.00 | 0.00 | 1016.6 | |
| 20260901002924 | 84 | 203 | 0.0 | 0.0 | 0.00 | 0.00 | 0.00 | 1016.6 | |
| 20260901002402 | 84 | 270 | 0.0 | 0.0 | 0.00 | 0.00 | 0.00 | 1016.6 | |
| 20260901001903 | 85 | 360 | 0.0 | 0.0 | 0.00 | 0.00 | 0.00 | 1016.6 | |
| 20260901001402 | 85 | 360 | 0.0 | 0.0 | 0.00 | 0.00 | 0.00 | 1017.0 | |
| 20260901000903 | 86 | 338 | 0.0 | 0.0 | 0.00 | 0.00 | 0.00 | 1016.6 | |
| 20260901000424 | 86 | 360 | 0.0 | 0.0 | 0.00 | 0.00 | 0.00 | 1016.6 | |
| 20260831235903 | 86 | 135 | 0.0 | 6.0 | 0.00 | 0.00 | 0.00 | 1016.0 | |
| 20260831235403 | 86 | 238 | 0.0 | 6.0 | 0.00 | 0.00 | 0.00 | 1016.0 | |
| 20260831234903 | 87 | 299 | 0.0 | 6.0 | 0.00 | 0.00 | 0.00 | 1016.6 | |
| 20260831233402 | 88 | 215 | 1.0 | 6.0 | 0.00 | 0.00 | 0.00 | 1016.0 | |
| 20260831232903 | 88 | 266 | 1.0 | 4.0 | 0.00 | 0.00 | 0.00 | 1016.0 | |
| 20260831232403 | 89 | 276 | 2.0 | 10.0 | 0.00 | 0.00 | 0.00 | 1016.3 | |
| 20260831231903 | 88 | 264 | 1.0 | 10.0 | 0.00 | 0.00 | 0.00 | 1016.0 | |
| 20260831231403 | 89 | 283 | 1.0 | 8.0 | 0.00 | 0.00 | 0.00 | 1016.3 | |
| 20260831230902 | 88 | 265 | 1.0 | 8.0 | 0.00 | 0.00 | 0.00 | 1016.0 | |
| 20260831230424 | 88 | 259 | 0.0 | 5.0 | 0.00 | 0.00 | 0.00 | 1016.0 | |
| 20260831225903 | 89 | 223 | 1.0 | 6.0 | 0.00 | 0.00 | 0.00 | 1015.6 | |
| 20260831225402 | 89 | 280 | 3.0 | 6.0 | 0.00 | 0.00 | 0.00 | 1016.0 | |
| 20260831224903 | 89 | 258 | 0.0 | 12.0 | 0.00 | 0.00 | 0.00 | 1016.3 | |
| 20260831224403 | 88 | 274 | 4.0 | 12.0 | 0.00 | 0.00 | 0.00 | 1016.0 | |
| 20260831223903 | 88 | 279 | 1.0 | 7.0 | 0.00 | 0.00 | 0.00 | 1016.0 | |
| 20260831223402 | 88 | 274 | 4.0 | 10.0 | 0.00 | 0.00 | 0.00 | 1015.6 | |
| 20260831222924 | 88 | 280 | 5.0 | 10.0 | 0.00 | 0.00 | 0.00 | 1015.6 |